TIME,DELAY(SENSOR),PRES,OXYGEN,RAWTEMP,T(OPTODE),TCPHASE,FLUOR,BETA(BETA700),BETA(BETA412),BETA(BETA440),CDOM,C(CSC),ED(ED412.40),ED(ED444.00),ED(ED489.70),ED(ED554.30),LU(LU411.80),LU(LU443.40),LU(LU489.60),LU(LU554.10),COMP,TILTX,TILTY,CHECK
1365911150,5806,839.7199707031250000,45.0826606750488300,657.9832763671875000,4.6943421363830570,54.2170715332031250,54,101,85,78,80,14865,2147754761,2147424201,2148012443,2147870930,2147639268,2147060361,2148258432,2147195629,2547,4,14,366
1365914747,5806,883.3599853515625000,46.6830482482910160,663.7186889648438000,4.5054697990417480,54.0613784790039060,52,105,87,79,80,14869,2147753517,2147424996,2148005732,2147875666,2147637494,2147057865,2148258944,2147193645,941,4,13,19554
1365918347,5810,898.4299926757812000,46.8812103271484400,665.8181762695312000,4.4362387657165530,54.0550689697265600,53,99,89,79,80,14867,2147755776,2147424128,2148011620,2147873563,2147640045,2147055506,2148257380,2147196973,97,4,13,17835
1365921947,5807,924.6599731445312000,46.7173995971679700,668.8477783203125000,4.3362522125244140,54.1166114807128900,53,97,88,78,80,14869,2147755318,2147422491,2148007250,2147878701,2147637056,2147058770,2148258002,2147198729,3502,4,13,25558
1365925547,5810,936.4699707031250000,46.8835601806640600,669.2116088867188000,4.3242378234863280,54.0975608825683600,52,102,89,78,79,14867,2147759515,2147422409,2148011675,2147872320,2147639067,2147050870,2148257426,2147195291,447,4,13,34812
1365929147,5804,944.2500000000000000,46.0299987792968750,667.3043212890625000,4.3872051239013670,54.1940498352050800,53,99,86,78,81,14861,2147758317,2147424146,2148010660,2147877147,2147640301,2147051940,2148259812,2147195437,394,4,13,39098
1365932747,5809,980.4299926757812000,46.7924499511718750,669.5496215820312000,4.3130741119384770,54.1177101135253900,52,98,84,77,80,14866,2147754752,2147423616,2148010797,2147876388,2147641280,2147048402,2148260598,2147198244,3482,4,13,28441
1365936347,5812,981.4400024414062000,46.2907600402832000,669.1359252929688000,4.3267378807067870,54.1833381652832000,52,96,86,78,82,14865,2147753654,2147424054,2148011885,2147879040,2147640228,2147054994,2148258880,2147192996,240,4,13,2693
1365939947,5809,976.6099853515625000,46.2976112365722660,669.4760131835938000,4.3155078887939450,54.1836204528808600,52,99,85,79,81,14863,2147754121,2147422445,2148013714,2147872969,2147641289,2147063259,2148263963,2147194614,919,4,13,18914
1365943547,5810,975.0700073242188000,47.3192901611328100,670.0316772460938000,4.2971520423889160,54.0424995422363300,53,99,83,79,79,14862,2147754102,2147424896,2148011026,2147875620,2147638674,2147054811,2148265225,2147193462,3532,4,13,18118
1365947147,5808,970.8699951171875000,47.9591102600097660,671.1101074218750000,4.2615199089050290,53.9713401794433600,52,97,88,78,81,14855,2147754642,2147421970,2148010395,2147875218,2147639542,2147056566,2148263186,2147196964,129,4,13,43665
1365950747,5806,974.1900024414062000,47.8487281799316400,671.1693725585938000,4.2595601081848145,53.9817390441894500,52,96,89,78,81,14851,2147756534,2147422966,2148012269,2147874130,2147642185,2147054646,2148264850,2147197860,268,4,13,10551
1365954347,5808,978.3300170898438000,48.0639190673828100,671.0922851562500000,4.2621078491210940,53.9575996398925800,52,99,85,78,79,14848,2147754093,2147424877,2148011373,2147874779,2147641088,2147058697,2148257645,2147194230,3381,4,13,18783
1365957947,5803,952.5999755859375000,47.8673210144043000,673.1560058593750000,4.1938858032226560,54.0066108703613300,52,100,87,78,80,14848,2147755757,2147422336,2148013549,2147873572,2147639862,2147051492,2148265910,2147194752,577,4,13,55880
1365961547,5810,966.0499877929688000,47.9408302307128900,673.2780151367188000,4.1898541450500490,53.9985313415527340,54,97,89,79,81,14848,2147757238,2147425737,2148011044,2147880457,2147642523,2147052836,2148258240,2147192539,198,4,13,19386
1365965147,5809,974.3099975585938000,47.7166595458984400,672.1824951171875000,4.2260742187500000,54.0190010070800800,53,109,87,79,81,14849,2147755940,2147422208,2148011684,2147876534,2147639680,2147057161,2148258496,2147197147,239,4,13,18811
1365968747,5811,974.4799804687500000,46.7598915100097660,672.1489868164062000,4.2271800041198730,54.1502189636230500,52,102,91,78,80,14851,2147756836,2147425014,2148009152,2147878619,2147642816,2147060653,2148265060,2147194230,236,4,13,52184
1365972347,5804,982.5399780273438000,48.0939598083496100,670.9063110351562000,4.2682528495788570,53.9460983276367200,52,96,87,80,79,14847,2147755081,2147423680,2148009856,2147873536,2147643017,2147057024,2148261814,2147194276,2979,4,13,51597
1365975947,5810,984.9600219726562000,47.1320915222168000,669.3441772460938000,4.3198590278625490,54.0600395202636700,52,100,88,79,80,14849,2147754130,2147423067,2148015177,2147875081,2147640859,2147056521,2148263067,2147194496,28,4,13,48560
1365979547,5813,985.1300048828125000,47.0446701049804700,669.3499755859375000,4.3196659088134770,54.0736885070800800,52,98,87,79,80,14846,2147753737,2147421046,2148012507,2147877339,2147639853,2147057810,2148257453,2147196553,3480,4,13,42713
1365983147,5812,983.7299804687500000,46.7140808105468750,669.6491088867188000,4.3097882270812990,54.1264305114746100,53,98,86,79,80,14847,2147756150,2147424658,2148012717,2147872173,2147641545,2147059181,2148261668,2147193417,50,4,13,60001
1365986747,5809,978.5900268554688000,47.5925712585449200,670.7548217773438000,4.2732620239257810,54.0184898376464840,52,106,87,79,82,14849,2147752612,2147424219,2148010953,2147878939,2147640886,2147058020,2148261110,2147193490,2924,4,13,16373
1365990347,5806,979.7999877929688000,47.3265609741210940,670.7128295898438000,4.2746491432189940,54.0538215637207000,52,99,85,80,80,14848,2147754560,2147424064,2148011026,2147875748,2147639762,2147057773,2148262848,2147193152,3486,4,13,23350
1365993947,5810,974.3900146484375000,47.8744010925293000,671.4619140625000000,4.2498950958251950,53.9839210510253900,52,97,90,79,80,14848,2147757083,2147428717,2148015104,2147875081,2147642121,2147061659,2148255881,2147191387,241,4,13,26301
1365997547,5808,974.5900268554688000,47.5616989135742200,671.6414794921875000,4.2439560890197750,54.0349502563476560,52,99,84,80,80,14850,2147752777,2147421961,2148012525,2147874861,2147640969,2147058240,2148257545,2147196150,640,4,13,1289
1366001147,5804,980.3099975585938000,48.0641403198242200,671.4329833984375000,4.2508468627929690,53.9582405090332000,53,99,82,78,81,14848,2147755245,2147424822,2148010377,2147876160,2147642368,2147057115,2148259337,2147193554,170,4,13,42989
1366004747,5808,978.8099975585938000,47.8381805419921900,672.1032104492188000,4.2286949157714840,54.0019302368164060,53,98,86,80,81,14846,2147754998,2147422765,2148009801,2147876955,2147642322,2147052891,2148259675,2147195492,147,4,13,26184
1366008347,5810,975.8099975585938000,47.1734199523925800,672.7324829101562000,4.2078900337219240,54.0967712402343750,52,97,87,79,80,14848,2147756160,2147423625,2148010349,2147872786,2147640923,2147056795,2148262884,2147192402,3523,4,13,39372
1366011947,5810,973.5599975585938000,47.6307411193847660,672.9384155273438000,4.2010841369628910,54.0348205566406250,53,100,88,79,82,14844,2147755044,2147423113,2148009371,2147877266,2147641060,2147057060,2148263076,2147199277,431,4,13,41465
1366015547,5810,978.3599853515625000,47.3181915283203100,672.9028930664062000,4.2022547721862790,54.0814018249511700,52,99,85,78,80,14845,2147751890,2147421851,2148012370,2147873344,2147642002,2147052480,2148257142,2147195437,320,4,13,38646
1366019147,5807,988.4099731445312000,48.0589714050293000,671.5093994140625000,4.2483229637146000,53.9576988220214840,52,101,84,76,81,14845,2147749202,2147423524,2148010541,2147874212,2147640740,2147054217,2148262326,2147191945,3183,4,13,10014
1366022747,5808,989.5900268554688000,47.1334304809570300,670.6276245117188000,4.2774639129638670,54.0824012756347660,52,98,85,80,80,14842,2147754852,2147421211,2148009828,2147875200,2147642496,2147053001,2148262985,2147194624,3525,4,13,57991
1366026347,5811,987.4500122070312000,47.2279586791992200,670.6795043945312000,4.2757468223571780,54.0629501342773440,52,98,86,79,81,14843,2147747876,2147426642,2148010998,2147874486,2147642148,2147057792,2148259401,2147195766,3566,4,13,52702
1366029947,5808,985.6400146484375000,47.9100608825683600,670.9420166015625000,4.2670731544494630,53.9743194580078100,53,96,84,78,80,14773,2147755200,2147424969,2148012114,2147874898,2147645028,2147056603,2148260141,2147194139,3274,4,13,36342
1366033547,5809,977.9199829101562000,47.1824302673339840,671.2501220703125000,4.2568931579589840,54.0790481567382800,52,98,85,80,80,14772,2147751899,2147425526,2148011474,2147873371,2147641298,2147052388,2148260973,2147196452,163,4,13,25607
1366037147,5809,978.0700073242188000,47.2772483825683600,672.2833862304688000,4.2227377891540530,54.0784797668457000,53,97,85,79,81,14770,2147755529,2147423012,2148012288,2147869476,2147640886,2147057170,2148260918,2147195931,1,4,13,53076
1366040747,5810,976.0399780273438000,47.4597511291503900,672.6926269531250000,4.2092080116271970,54.0608215332031250,51,101,89,77,79,14766,2147755254,2147422189,2148011913,2147873490,2147641581,2147049673,2148262262,2147196736,57,4,13,53662
1366044347,5809,984.2100219726562000,47.3157615661621100,673.1156005859375000,4.1952209472656250,54.0813713073730500,53,99,85,79,80,14769,2147756964,2147422555,2148010678,2147875273,2147642102,2147054217,2148264493,2147198198,672,4,13,24546
1366047947,5806,985.2199707031250000,47.6013793945312500,673.0988769531250000,4.1957759857177730,54.0469703674316400,53,97,87,79,80,14771,2147754358,2147425444,2148009865,2147874395,2147641133,2147056073,2148261632,2147194304,3282,4,13,42419
1366051547,5806,975.6599731445312000,47.2849197387695300,673.3795776367188000,4.1864910125732420,54.0889396667480500,52,101,90,79,81,14677,2147758171,2147425600,2148010953,2147873197,2147641051,2147052068,2148259977,2147196653,933,4,13,51843
1366055147,5813,975.4600219726562000,48.0664710998535160,674.3988037109375000,4.1527791023254395,53.9904785156250000,52,100,85,79,80,14672,2147758253,2147424530,2148012507,2147874907,2147643730,2147050806,2148266002,2147193792,60,4,13,17949
1366056656,5808,974.1099853515625000,47.4398384094238300,674.3546142578125000,4.1542420387268070,54.0808410644531250,52,99,86,79,80,14847,2147756397,2147422939,2148011666,2147875154,2147643117,2147054546,2148266889,2147195035,222,4,13,10429
